Weather History for Mosby, MO

Change the Weather History Date:

Friday, January 3, 2014

  Actual Average (KMKC) Record (KMKC)
Temperature  
Mean Temperature 16 °F -  
Max Temperature 35 °F 38 °F 68 °F (1997)
Min Temperature -4 °F 21 °F 5 °F (1999)
Degree Days  
Heating Degree Days 50    
Moisture  
Dew Point 11 °F    
Average Humidity 70    
Maximum Humidity 92    
Minimum Humidity 56    
Precipitation  
Precipitation 0.00 in - - ()
Sea Level Pressure  
Sea Level Pressure 30.13 in    
Wind  
Wind Speed 5 mph (SSE)    
Max Wind Speed 18 mph    
Max Gust Speed 28 mph    
Visibility 10 miles    
Events      
Averages and records for this station are not official NWS values.
T = Trace of Precipitation, MM = Missing Value Source: NWS Daily Summary

Daily Weather History Graph

Daily Weather History Graph

Search for Another Location

Airport:

Trip Planner

Search our weather history database for the weather conditions in past years. The results will help you decide how hot, cold, wet, or windy it might be!

Date:

Astronomy

Jan. 03, 2014 Rise Set
Actual Time 7:37 AM CST 5:06 PM CST
Civil Twilight 7:07 AM CST 5:36 PM CST
Nautical Twilight 6:33 AM CST 6:10 PM CST
Astronomical Twilight 6:01 AM CST 6:42 PM CST
Moon 9:04 AM CST (1/3) 8:15 PM CST (1/3)
Length of Visible Light 10h 29m
Length of Day
9h 29m
Waxing Crescent, 8% of the Moon is Illuminated
Jan 3
Waxing Crescent
Jan 7
First Quarter
Jan 15
Full
Jan 23
Last Quarter
Jan 30
New

Hourly Weather History & Observations

Time (CST) Temp. Windchill Dew Point Humidity Pressure Visibility Wind Dir Wind Speed Gust Speed Precip Events Conditions
12:15 AM -2.2 °F - -5.8 °F 85% 30.49 in 10.0 mi Calm Calm - N/A   Clear
12:35 AM -2.2 °F - -5.8 °F 85% 30.47 in 10.0 mi Calm Calm - N/A   Unknown
12:55 AM -2.2 °F - -5.8 °F 85% 30.47 in 10.0 mi Calm Calm - N/A   Clear
1:15 AM -2.2 °F - -5.8 °F 85% 30.47 in 10.0 mi Calm Calm - N/A   Clear
1:35 AM -2.2 °F - -5.8 °F 85% 30.46 in 10.0 mi Calm Calm - N/A   Unknown
1:55 AM -4.0 °F - -5.8 °F 92% 30.45 in 10.0 mi Calm Calm - N/A   Clear
2:15 AM -2.2 °F - -5.8 °F 85% 30.45 in 10.0 mi Calm Calm - N/A   Clear
2:35 AM -2.2 °F - -5.8 °F 85% 30.45 in 10.0 mi Calm Calm - N/A   Unknown
2:55 AM -2.2 °F - -5.8 °F 85% 30.45 in 10.0 mi Calm Calm - N/A   Clear
3:15 AM -2.2 °F - -5.8 °F 85% 30.43 in 10.0 mi Calm Calm - N/A   Clear
3:35 AM -2.2 °F - -5.8 °F 85% 30.43 in 10.0 mi Calm Calm - N/A   Clear
3:55 AM -2.2 °F - -5.8 °F 85% 30.42 in 10.0 mi Calm Calm - N/A   Clear
4:15 AM -0.4 °F - -5.8 °F 78% 30.41 in 10.0 mi Calm Calm - N/A   Clear
4:35 AM -0.4 °F - -4.0 °F 85% 30.42 in 10.0 mi Calm Calm - N/A   Unknown
4:55 AM -0.4 °F - -4.0 °F 85% 30.39 in 10.0 mi Calm Calm - N/A   Clear
5:15 AM -0.4 °F - -4.0 °F 85% 30.38 in 10.0 mi Calm Calm - N/A   Clear
5:35 AM 1.4 °F -6.2 °F -2.2 °F 85% 30.37 in 10.0 mi SE 3.5 mph - N/A   Unknown
5:55 AM 1.4 °F -8.3 °F -2.2 °F 85% 30.36 in 10.0 mi ESE 4.6 mph - N/A   Clear
6:15 AM 3.2 °F -4.2 °F -2.2 °F 78% 30.36 in 10.0 mi SSE 3.5 mph - N/A   Scattered Clouds
6:35 AM 3.2 °F -4.2 °F -2.2 °F 78% 30.35 in 10.0 mi ESE 3.5 mph - N/A   Scattered Clouds
6:55 AM 3.2 °F -6.2 °F -0.4 °F 85% 30.34 in 10.0 mi ESE 4.6 mph - N/A   Clear
7:15 AM 5.0 °F -8.1 °F -0.4 °F 78% 30.32 in 10.0 mi ESE 8.1 mph - N/A   Clear
7:35 AM 5.0 °F -5.6 °F -0.4 °F 78% 30.32 in 10.0 mi ESE 5.8 mph - N/A   Clear
7:55 AM 5.0 °F -6.9 °F -0.4 °F 78% 30.31 in 10.0 mi SE 6.9 mph - N/A   Clear
8:15 AM 6.8 °F -4.8 °F -0.4 °F 72% 30.30 in 10.0 mi ESE 6.9 mph - N/A   Clear
8:35 AM 8.6 °F 0.1 °F -0.4 °F 67% 30.29 in 10.0 mi SE 4.6 mph - N/A   Clear
8:55 AM 8.6 °F -1.3 °F 1.4 °F 73% 30.28 in 10.0 mi ESE 5.8 mph - N/A   Clear
9:15 AM 10.4 °F 0.8 °F 1.4 °F 67% 30.29 in 10.0 mi SE 5.8 mph - N/A   Clear
9:35 AM 12.2 °F 1.7 °F 3.2 °F 67% 30.27 in 10.0 mi SE 6.9 mph - N/A   Clear
9:55 AM 12.2 °F 1.7 °F 3.2 °F 67% 30.26 in 10.0 mi SE 6.9 mph - N/A   Clear
10:15 AM 14.0 °F 2.9 °F 5.0 °F 67% 30.25 in 10.0 mi SE 8.1 mph - N/A   Clear
10:35 AM 15.8 °F 5.1 °F 6.8 °F 68% 30.24 in 10.0 mi SE 8.1 mph - N/A   Clear
10:55 AM 19.4 °F 11.5 °F 8.6 °F 63% 30.23 in 10.0 mi SSE 5.8 mph - N/A   Clear
11:15 AM 21.2 °F 10.1 °F 10.4 °F 63% 30.21 in 10.0 mi SSE 10.4 mph - N/A   Unknown
11:35 AM 23.0 °F 10.1 °F 12.2 °F 63% 30.18 in 10.0 mi South 15.0 mph 18.4 mph N/A   Clear
11:55 AM 26.6 °F 15.7 °F 14.0 °F 59% 30.16 in 10.0 mi SSE 12.7 mph 17.3 mph N/A   Clear
12:15 PM 28.4 °F 18.0 °F 17.6 °F 64% 30.13 in 10.0 mi SSE 12.7 mph 19.6 mph N/A   Clear
12:35 PM 28.4 °F 17.0 °F 17.6 °F 64% 30.10 in 10.0 mi South 15.0 mph 24.2 mph N/A   Unknown
12:55 PM 30.2 °F 19.8 °F 19.4 °F 64% 30.09 in 10.0 mi South 13.8 mph 21.9 mph N/A   Clear
1:15 PM 30.2 °F 20.8 °F 19.4 °F 64% 30.06 in 10.0 mi South 11.5 mph 19.6 mph N/A   Clear
1:35 PM 32.0 °F 22.5 °F 19.4 °F 60% 30.04 in 10.0 mi SSE 12.7 mph 18.4 mph N/A   Unknown
1:55 PM 32.0 °F 21.6 °F 19.4 °F 60% 30.02 in 10.0 mi South 15.0 mph 24.2 mph N/A   Clear
2:15 PM 32.0 °F 20.8 °F 19.4 °F 60% 30.00 in 10.0 mi South 17.3 mph 27.6 mph N/A   Clear
2:35 PM 32.0 °F 21.2 °F 19.4 °F 60% 29.99 in 10.0 mi South 16.1 mph 25.3 mph N/A   Unknown
2:55 PM 33.8 °F 22.8 °F 21.2 °F 60% 29.97 in 10.0 mi South 18.4 mph 26.5 mph N/A   Unknown
3:15 PM 33.8 °F 23.2 °F 21.2 °F 60% 29.95 in 10.0 mi South 17.3 mph 25.3 mph N/A   Clear
3:35 PM 35.6 °F 27.5 °F 21.2 °F 56% 29.94 in 10.0 mi South 11.5 mph 21.9 mph N/A   Clear
3:55 PM 35.6 °F 26.2 °F 21.2 °F 56% 29.93 in 10.0 mi South 15.0 mph 18.4 mph N/A   Unknown
4:15 PM 35.6 °F 27.1 °F 23.0 °F 60% 29.91 in 10.0 mi SSE 12.7 mph 21.9 mph N/A   Unknown
4:35 PM 35.6 °F 27.1 °F 23.0 °F 60% 29.90 in 10.0 mi SSE 12.7 mph 25.3 mph N/A   Clear
4:55 PM 35.6 °F 27.1 °F 23.0 °F 60% 29.90 in 10.0 mi SSE 12.7 mph 21.9 mph N/A   Clear
5:15 PM 33.8 °F 24.8 °F 23.0 °F 65% 29.88 in 10.0 mi SSE 12.7 mph 19.6 mph N/A   Clear
5:35 PM 33.8 °F 24.8 °F 23.0 °F 65% 29.87 in 10.0 mi South 12.7 mph 19.6 mph N/A   Clear
5:55 PM 33.8 °F 24.3 °F 23.0 °F 65% 29.87 in 10.0 mi South 13.8 mph 19.6 mph N/A   Clear
6:15 PM 33.8 °F 25.8 °F 24.8 °F 70% 29.87 in 10.0 mi South 10.4 mph - N/A   Clear
6:35 PM 33.8 °F 26.4 °F 24.8 °F 70% 29.86 in 10.0 mi South 9.2 mph - N/A   Clear
6:55 PM 33.8 °F 24.8 °F 24.8 °F 70% 29.85 in 10.0 mi SSE 12.7 mph 17.3 mph N/A   Clear
7:15 PM 33.8 °F 25.3 °F 24.8 °F 70% 29.85 in 10.0 mi South 11.5 mph 17.3 mph N/A   Clear
7:35 PM 33.8 °F 25.8 °F 24.8 °F 70% 29.85 in 10.0 mi South 10.4 mph 17.3 mph N/A   Clear
7:55 PM 33.8 °F 25.8 °F 26.6 °F 75% 29.84 in 10.0 mi South 10.4 mph 16.1 mph N/A   Clear
8:15 PM 33.8 °F 27.0 °F 24.8 °F 70% 29.84 in 10.0 mi South 8.1 mph - N/A   Clear
8:35 PM 33.8 °F 25.8 °F 24.8 °F 70% 29.83 in 10.0 mi SSE 10.4 mph - N/A   Clear
8:55 PM 33.8 °F 26.4 °F 24.8 °F 70% 29.82 in 10.0 mi South 9.2 mph - N/A   Clear
9:15 PM 33.8 °F 25.8 °F 23.0 °F 65% 29.82 in 10.0 mi SSE 10.4 mph - N/A   Clear
9:35 PM 33.8 °F 24.3 °F 23.0 °F 65% 29.82 in 10.0 mi South 13.8 mph - N/A   Clear
9:55 PM 35.6 °F 27.5 °F 21.2 °F 56% 29.82 in 10.0 mi South 11.5 mph 20.7 mph N/A   Clear
10:15 PM 35.6 °F 27.1 °F 21.2 °F 56% 29.81 in 10.0 mi South 12.7 mph 23.0 mph N/A   Clear
10:35 PM 35.6 °F 26.6 °F 21.2 °F 56% 29.81 in 10.0 mi South 13.8 mph 23.0 mph N/A   Clear
10:55 PM 35.6 °F 26.2 °F 21.2 °F 56% 29.81 in 10.0 mi South 15.0 mph 21.9 mph N/A   Unknown
11:15 PM 35.6 °F 27.5 °F 21.2 °F 56% 29.80 in 10.0 mi South 11.5 mph 19.6 mph N/A   Clear
11:35 PM 35.6 °F 26.6 °F 21.2 °F 56% 29.80 in 10.0 mi South 13.8 mph 17.3 mph N/A   Clear
11:55 PM 35.6 °F 27.1 °F 21.2 °F 56% 29.79 in 10.0 mi South 12.7 mph 20.7 mph N/A   Clear